ORBCOMM FM38 [-] (33060 NORAD) Tracking and Keplerian Element Data

This shows tracking and keplerian element data for the satellite.

Feedback or suggestion? Click here.




ElementValue
Catalog33060
NameORBCOMM FM38 [-]
Epoch Orbit81696
Epoch Day238.35616727
Epoch Year2023
RAAN210.0292
Inclination48.4415
Eccentricity0.000515
Argument of Perigee85.6588
Mean Anonmoly274.4914
Mean Motion14.75898654
Decay Rate1.96E-05
L11 33060U 08031A 23238.35616727 .00001960 00000+0 31190-3 0 9991
L22 33060 48.4415 210.0292 0005150 85.6588 274.4914 14.75898654816965



Live tracking and technical data element details for ORBCOMM FM38 [-] (NORAD 33060). ORBCOMM FM38 [-] can be tracked NOW for your location showing map with azimuth and elevation plus other details from your city location.







IsCatalogInMostPopularTable: catalog: 33060, numindb: 309
Update: records affected: 1



GetName: 33060 ORBCOMM FM38 [-]

Hit Count: updated at: Thu, 22 May 2025 04:04:19 GMT